Location: Dilsberg
(49.3983°N, 8.8354°E)
Time: 06:41:20
(UTC+00:00)

NOSS 3-1 (C) - Pass Details

Date: 19 May 2025
Orbit: 625 x 1577 km, 63.4° (Epoch: 18 June)

Event Time Altitude Azimuth Distance (km) Brightness Sun altitude
Rises 20:17:08 0° 197° (SSW) 2,944 5.7 -9.5°
Reaches altitude 10° 20:19:21 10° 189° (S) 2,091 4.9 -9.8°
Maximum altitude 20:23:45 41° 120° (ESE) 1,063 3.3 -10.3°
Drops below altitude 10° 20:28:57 10° 51° (NE) 2,491 5.6 -10.8°
Sets 20:31:50 0° 45° (NE) 3,584 6.5 -11.1°
